DW9622 Weather Reports


Display with metric or nautical units.
time (UTC)temp
F
wind
direction
speed
MPH
gust
MPH
rain 1hr
in
rain 24hr
in
rain mn
in
humidity
%
barometer
mb
20260504141012 49 333 0.0 2.0 0.00 0.00 0.00 96 1010.8
20260504140503 49 333 0.0 2.0 0.00 0.00 0.00 96 1010.9
20260504130505 45 115 0.0 2.0 0.00 0.00 0.00 94 1010.3
20260504110506 47 290 0.0 2.0 0.00 0.00 0.00 93 1010.3
20260504100503 48 271 0.0 2.0 0.00 0.00 0.00 92 1010.1
20260504082007 50 173 0.0 2.0 0.00 0.00 0.00 90 1010.0
20260504081529 50 173 1.0 1.0 0.00 0.00 0.00 90 1010.0
20260504081012 50 125 1.0 2.0 0.00 0.00 0.00 90 1010.1
20260504080504 50 103 0.0 2.0 0.00 0.00 0.00 89 1010.0
20260504050506 57 203 2.0 3.0 0.00 0.00 0.00 79 1009.9
20260504050007 57 210 1.0 2.0 0.00 0.00 0.00 79 1010.0
20260504045501 58 218 1.0 2.0 0.00 0.00 0.00 79 1010.0
20260504045001 58 196 1.0 2.0 0.00 0.00 0.00 78 1010.0
20260504044508 58 192 1.0 2.0 0.00 0.00 0.00 77 1010.0
20260504044002 59 219 2.0 2.0 0.00 0.00 0.00 77 1010.1
20260504043503 59 225 2.0 2.0 0.00 0.00 0.00 75 1010.1
20260504043012 60 216 1.0 3.0 0.00 0.00 0.00 75 1010.1
20260504042503 60 209 2.0 3.0 0.00 0.00 0.00 74 1010.0
20260504042003 60 219 2.0 3.0 0.00 0.00 0.00 73 1010.0
20260504041510 61 228 2.0 2.0 0.00 0.00 0.00 73 1010.0
20260504041002 62 221 1.0 2.0 0.00 0.00 0.00 72 1010.0
20260504040503 62 223 2.0 4.0 0.00 0.00 0.00 71 1010.0
20260504040008 62 198 2.0 4.0 0.00 0.00 0.00 70 1010.0
20260504035503 62 193 2.0 3.0 0.00 0.00 0.00 70 1009.9
20260504035004 63 211 1.0 3.0 0.00 0.00 0.00 70 1010.0
20260504034517 63 205 1.0 4.0 0.00 0.00 0.00 69 1009.9
20260504034001 64 215 2.0 4.0 0.00 0.00 0.00 68 1009.9
20260504033503 64 209 2.0 3.0 0.00 0.00 0.00 68 1009.9
20260504033021 65 215 2.0 3.0 0.00 0.00 0.00 67 1010.0
20260504032503 66 205 1.0 3.0 0.00 0.00 0.00 65 1010.0
20260504032005 67 205 2.0 3.0 0.00 0.00 0.00 64 1009.9
20260504031518 67 202 2.0 3.0 0.00 0.00 0.00 63 1009.9
20260504031003 68 204 2.0 3.0 0.00 0.00 0.00 63 1009.9
20260504030505 69 197 1.0 2.0 0.00 0.00 0.00 62 1009.9
20260504030012 69 196 2.0 3.0 0.00 0.00 0.00 60 1010.0
20260504025502 70 193 2.0 3.0 0.00 0.00 0.00 59 1009.9
20260504025003 71 192 2.0 3.0 0.00 0.00 0.00 58 1009.9
20260504024510 71 181 1.0 3.0 0.00 0.00 0.00 58 1009.9
20260504024004 71 212 1.0 3.0 0.00 0.00 0.00 57 1010.0
20260504023503 72 228 2.0 4.0 0.00 0.00 0.00 55 1010.0
20260504023016 72 215 2.0 4.0 0.00 0.00 0.00 55 1009.9
20260504022503 73 228 3.0 5.0 0.00 0.00 0.00 53 1009.9
20260504022003 74 209 3.0 5.0 0.00 0.00 0.00 53 1010.0
20260504021508 74 216 2.0 6.0 0.00 0.00 0.00 53 1010.0
20260504021003 75 175 3.0 6.0 0.00 0.00 0.00 53 1010.0
20260504020503 76 208 3.0 5.0 0.00 0.00 0.00 51 1010.0
20260504020015 76 153 4.0 5.0 0.00 0.00 0.00 51 1010.0
20260504015504 77 189 2.0 5.0 0.00 0.00 0.00 50 1010.1
20260504015004 78 202 2.0 4.0 0.00 0.00 0.00 46 1010.2
20260504014510 79 250 1.0 3.0 0.00 0.00 0.00 39 1010.3
20260504014002 78 273 1.0 4.0 0.00 0.00 0.00 35 1010.3
20260504013505 79 237 3.0 4.0 0.00 0.00 0.00 36 1010.3
20260504013016 79 223 2.0 4.0 0.00 0.00 0.00 36 1010.3
20260504012510 78 261 2.0 5.0 0.00 0.00 0.00 36 1010.4
20260504012006 78 234 3.0 6.0 0.00 0.00 0.00 35 1010.4
20260504011509 79 238 3.0 6.0 0.00 0.00 0.00 39 1010.5
20260504011004 78 269 2.0 6.0 0.00 0.00 0.00 37 1010.6
20260504010504 79 204 3.0 6.0 0.00 0.00 0.00 36 1010.6
20260504010012 79 259 1.0 9.0 0.00 0.00 0.00 38 1010.7
20260504005504 79 277 3.0 9.0 0.00 0.00 0.00 38 1010.6
20260504005010 79 280 4.0 8.0 0.00 0.00 0.00 35 1010.8
20260504004519 79 289 5.0 8.0 0.00 0.00 0.00 36 1010.9
20260504004006 79 254 3.0 9.0 0.00 0.00 0.00 37 1010.9
20260504003503 79 279 5.0 9.0 0.00 0.00 0.00 34 1010.9
20260504003010 79 343 4.0 7.0 0.00 0.00 0.00 36 1010.9
20260504002502 79 294 4.0 7.0 0.00 0.00 0.00 35 1011.0
20260504002007 79 219 3.0 8.0 0.00 0.00 0.00 35 1011.0
20260504001512 79 228 3.0 8.0 0.00 0.00 0.00 36 1011.0
20260504001003 79 200 4.0 9.0 0.00 0.00 0.00 34 1011.1
20260504000507 79 284 6.0 9.0 0.00 0.00 0.00 34 1011.1
20260504000010 79 273 4.0 9.0 0.00 0.00 0.00 35 1011.0
20260503235504 79 246 4.0 9.0 0.00 0.00 0.00 36 1011.1
20260503235004 79 254 4.0 8.0 0.00 0.00 0.00 37 1011.3
20260503234525 79 273 3.0 8.0 0.00 0.00 0.00 39 1011.3
20260503234004 79 275 4.0 8.0 0.00 0.00 0.00 38 1011.3
20260503233504 79 301 4.0 8.0 0.00 0.00 0.00 40 1011.3
20260503233013 79 283 5.0 8.0 0.00 0.00 0.00 40 1011.3
20260503232503 79 319 4.0 9.0 0.00 0.00 0.00 41 1011.4
20260503232007 78 268 4.0 9.0 0.00 0.00 0.00 41 1011.4
20260503231512 78 274 4.0 8.0 0.00 0.00 0.00 44 1011.6
20260503231008 78 278 3.0 8.0 0.00 0.00 0.00 45 1011.6
20260503230510 78 273 3.0 7.0 0.00 0.00 0.00 46 1011.7
20260503230022 77 225 3.0 9.0 0.00 0.00 0.00 49 1011.8
20260503225503 78 280 6.0 11.0 0.00 0.00 0.00 46 1011.9
20260503225003 78 204 3.0 11.0 0.00 0.00 0.00 48 1011.9
20260503224514 78 263 5.0 9.0 0.00 0.00 0.00 46 1012.0
20260503224006 78 244 3.0 9.0 0.00 0.00 0.00 45 1012.1
20260503223502 78 290 4.0 9.0 0.00 0.00 0.00 43 1012.2
20260503223014 79 287 4.0 9.0 0.00 0.00 0.00 44 1012.2
20260503222506 79 277 4.0 10.0 0.00 0.00 0.00 44 1012.3
20260503222007 78 314 5.0 10.0 0.00 0.00 0.00 38 1012.4
20260503221519 78 277 2.0 8.0 0.00 0.00 0.00 43 1012.4
20260503221010 78 296 5.0 8.0 0.00 0.00 0.00 40 1012.4
20260503220504 78 244 4.0 7.0 0.00 0.00 0.00 38 1012.4
20260503220036 78 230 3.0 7.0 0.00 0.00 0.00 42 1012.4
20260503215507 78 309 2.0 7.0 0.00 0.00 0.00 42 1012.4
20260503215004 78 313 2.0 8.0 0.00 0.00 0.00 45 1012.4
20260503214515 78 250 3.0 8.0 0.00 0.00 0.00 44 1012.6
20260503214003 78 296 3.0 9.0 0.00 0.00 0.00 43 1012.6
20260503213505 78 279 2.0 9.0 0.00 0.00 0.00 45 1012.7
20260503213018 77 271 3.0 9.0 0.00 0.00 0.00 43 1012.8
20260503212507 77 313 4.0 8.0 0.00 0.00 0.00 44 1012.8
20260503212007 77 263 3.0 10.0 0.00 0.00 0.00 44 1012.9
20260503211514 76 300 5.0 10.0 0.00 0.00 0.00 43 1012.9
20260503211004 76 268 2.0 7.0 0.00 0.00 0.00 45 1013.0
20260503210511 76 281 3.0 8.0 0.00 0.00 0.00 44 1013.1
20260503210016 76 248 3.0 8.0 0.00 0.00 0.00 44 1013.1
20260503205507 76 273 3.0 9.0 0.00 0.00 0.00 51 1013.2
20260503205005 76 285 4.0 9.0 0.00 0.00 0.00 46 1013.2
20260503204516 76 275 4.0 8.0 0.00 0.00 0.00 48 1013.3
20260503204009 75 311 2.0 10.0 0.00 0.00 0.00 47 1013.4
20260503203504 75 298 2.0 10.0 0.00 0.00 0.00 49 1013.5
20260503203018 75 298 6.0 10.0 0.00 0.00 0.00 48 1013.6
20260503202506 75 275 3.0 10.0 0.00 0.00 0.00 48 1013.6
20260503202009 75 290 5.0 9.0 0.00 0.00 0.00 50 1013.7
20260503201508 75 317 4.0 9.0 0.00 0.00 0.00 51 1013.8
20260503201006 75 294 5.0 9.0 0.00 0.00 0.00 52 1013.8
20260503200505 75 340 6.0 11.0 0.00 0.00 0.00 51 1013.9
20260503200029 75 267 6.0 11.0 0.00 0.00 0.00 50 1013.9
20260503195503 76 267 5.0 11.0 0.00 0.00 0.00 52 1013.9
20260503195002 76 293 6.0 11.0 0.00 0.00 0.00 50 1014.0
20260503194507 76 310 5.0 10.0 0.00 0.00 0.00 52 1014.0
20260503194002 76 290 4.0 9.0 0.00 0.00 0.00 49 1014.1
20260503193508 77 13 2.0 8.0 0.00 0.00 0.00 48 1014.0
20260503193013 76 261 3.0 7.0 0.00 0.00 0.00 49 1014.0
20260503192505 76 293 2.0 8.0 0.00 0.00 0.00 46 1014.1
20260503192005 76 284 4.0 8.0 0.00 0.00 0.00 44 1014.2
20260503191526 76 315 3.0 6.0 0.00 0.00 0.00 46 1014.2
20260503191009 75 295 3.0 7.0 0.00 0.00 0.00 47 1014.2
20260503190504 75 286 3.0 7.0 0.00 0.00 0.00 45 1014.1
20260503190015 75 326 3.0 8.0 0.00 0.00 0.00 47 1014.2
20260503185508 75 306 3.0 8.0 0.00 0.00 0.00 47 1014.3
20260503185006 75 283 2.0 8.0 0.00 0.00 0.00 49 1014.3
20260503184519 74 291 2.0 8.0 0.00 0.00 0.00 48 1014.3
20260503184004 74 347 3.0 7.0 0.00 0.00 0.00 46 1014.3
20260503183505 74 285 3.0 7.0 0.00 0.00 0.00 45 1014.4
20260503183006 74 283 3.0 7.0 0.00 0.00 0.00 44 1014.5
20260503182503 74 279 2.0 4.0 0.00 0.00 0.00 47 1014.6
20260503182006 74 318 2.0 4.0 0.00 0.00 0.00 46 1014.6
20260503181515 73 9 0.0 2.0 0.00 0.00 0.00 48 1014.6
20260503181006 73 130 1.0 4.0 0.00 0.00 0.00 46 1014.7
20260503180507 72 281 2.0 4.0 0.00 0.00 0.00 47 1014.8
20260503180022 72 286 1.0 7.0 0.00 0.00 0.00 46 1014.8
20260503175503 72 288 3.0 7.0 0.00 0.00 0.00 47 1014.8
20260503175003 73 315 2.0 5.0 0.00 0.00 0.00 48 1014.9
20260503174519 72 29 2.0 5.0 0.00 0.00 0.00 46 1014.9
20260503174008 72 346 1.0 5.0 0.00 0.00 0.00 51 1015.1
20260503173504 71 16 3.0 5.0 0.00 0.00 0.00 48 1015.1
20260503173007 71 325 2.0 6.0 0.00 0.00 0.00 53 1015.2
20260503172504 70 312 3.0 6.0 0.00 0.00 0.00 52 1015.2
20260503172006 70 309 1.0 4.0 0.00 0.00 0.00 53 1015.2
20260503171513 70 21 1.0 5.0 0.00 0.00 0.00 52 1015.3
20260503171003 70 302 2.0 6.0 0.00 0.00 0.00 52 1015.2
20260503170509 70 344 3.0 6.0 0.00 0.00 0.00 52 1015.3
20260503151004 57 201 0.0 2.0 0.00 0.00 0.00 89 1015.8
20260503150504 56 249 0.0 2.0 0.00 0.00 0.00 90 1015.8